Weather History for Dublin, Ireland

Change the Weather History Date:

Thursday, November 29, 2012

  Actual Average Record
Temperature  
Mean Temperature 35 °F -  
Max Temperature 40 °F 47 °F 55 °F (2000)
Min Temperature 30 °F 38 °F 17 °F (2010)
Degree Days  
Heating Degree Days 30    
Moisture  
Dew Point 32 °F    
Average Humidity 93    
Maximum Humidity 100    
Minimum Humidity 81    
Precipitation  
Precipitation 0.00 in 0.10 in - ()
Sea Level Pressure  
Sea Level Pressure 29.98 in    
Wind  
Wind Speed 8 mph ()    
Max Wind Speed 11 mph    
Max Gust Speed -    
Visibility 6.8 miles    
Events      
Averages and records for this station are not official NWS values.
T = Trace of Precipitation, MM = Missing Value Source: Averaged Metar Reports

Daily Weather History Graph

Daily Weather History Graph

Search for Another Location

Airport:

Trip Planner

Search our weather history database for the weather conditions in past years. The results will help you decide how hot, cold, wet, or windy it might be!

Date:

Astronomy

Nov. 29, 2012 Rise Set
Actual Time 8:15 AM GMT 4:11 PM GMT
Civil Twilight 7:34 AM GMT 4:52 PM GMT
Nautical Twilight 6:49 AM GMT 5:37 PM GMT
Astronomical Twilight 6:07 AM GMT 6:19 PM GMT
Moon 5:01 PM GMT (11/29) 8:52 AM GMT (11/29)
Length of Visible Light 9h 18m
Length of Day
7h 56m
Full, 99% of the Moon is Illuminated
Nov 29
Full
Dec 6
Last Quarter
Dec 13
New
Dec 20
First Quarter
Dec 28
Full

Hourly Weather History & Observations

Time (GMT) Temp. Windchill Dew Point Humidity Pressure Visibility Wind Dir Wind Speed Gust Speed Precip Events Conditions
12:00 AM 32 °F - 30 °F 90% 30.14 in 19 mi WNW 8.9 mph - -   Scattered Clouds
12:00 AM 32.0 °F 23.6 °F 30.2 °F 93% 30.12 in 6.2 mi WNW 10.4 mph - N/A   Partly Cloudy
12:30 AM 32.0 °F 23.6 °F 30.2 °F 93% 30.09 in 6.2 mi WNW 10.4 mph - N/A   Partly Cloudy
1:00 AM 32.0 °F 24.2 °F 30.2 °F 93% 30.09 in 6.2 mi WNW 9.2 mph - N/A   Partly Cloudy
1:30 AM 30.2 °F 21.9 °F 30.2 °F 100% 30.09 in 6.2 mi WNW 9.2 mph - N/A   Partly Cloudy
2:00 AM 30.2 °F 21.9 °F 30.2 °F 100% 30.09 in 6.2 mi WNW 9.2 mph - N/A   Partly Cloudy
2:30 AM 30.2 °F 22.6 °F 30.2 °F 100% 30.09 in 6.2 mi West 8.1 mph - N/A   Partly Cloudy
3:00 AM 32.0 °F 25.6 °F 30.2 °F 93% 30.06 in 6.2 mi West 6.9 mph - N/A   Partly Cloudy
3:30 AM 32.0 °F 23.6 °F 30.2 °F 93% 30.06 in 6.2 mi West 10.4 mph - N/A   Partly Cloudy
4:00 AM 32.0 °F 23.6 °F 30.2 °F 93% 30.06 in 6.2 mi West 10.4 mph - N/A   Partly Cloudy
4:30 AM 32.0 °F 23.6 °F 30.2 °F 93% 30.06 in 6.2 mi West 10.4 mph - N/A   Scattered Clouds
5:00 AM 32.0 °F 23.6 °F 30.2 °F 93% 30.06 in 6.2 mi West 10.4 mph - N/A   Scattered Clouds
5:30 AM 30.2 °F 22.6 °F 30.2 °F 100% 30.06 in 6.2 mi West 8.1 mph - N/A   Mostly Cloudy
6:00 AM 31 °F - 30 °F 93% 30.08 in 19 mi West 11.2 mph - -   Scattered Clouds
6:00 AM 30.2 °F 21.9 °F 30.2 °F 100% 30.04 in 6.2 mi West 9.2 mph - N/A   Mostly Cloudy
6:30 AM 32.0 °F 24.2 °F 30.2 °F 93% 30.04 in 6.2 mi West 9.2 mph - N/A   Mostly Cloudy
7:00 AM 32.0 °F 24.2 °F 30.2 °F 93% 30.04 in 6.2 mi West 9.2 mph - N/A   Scattered Clouds
7:30 AM 30.2 °F 21.9 °F 30.2 °F 100% 30.04 in 6.2 mi West 9.2 mph - N/A   Scattered Clouds
8:00 AM 30.2 °F 23.4 °F 30.2 °F 100% 30.04 in 6.2 mi West 6.9 mph - N/A   Scattered Clouds
8:30 AM 32.0 °F 24.8 °F 30.2 °F 93% 30.01 in 6.2 mi West 8.1 mph - N/A   Mostly Cloudy
9:00 AM 32.0 °F 24.8 °F 32.0 °F 100% 30.01 in 6.2 mi West 8.1 mph - N/A   Mostly Cloudy
9:30 AM 33.8 °F 27.0 °F 32.0 °F 93% 30.01 in 6.2 mi WSW 8.1 mph - N/A   Mostly Cloudy
10:00 AM 33.8 °F 27.7 °F 32.0 °F 93% 30.01 in 6.2 mi West 6.9 mph - N/A   Mostly Cloudy
10:30 AM 35.6 °F 30.7 °F 32.0 °F 87% 30.01 in 6.2 mi West 5.8 mph - N/A   Mostly Cloudy
11:00 AM 35.6 °F 28.6 °F 33.8 °F 93% 29.98 in 6.2 mi West 9.2 mph - N/A   Mostly Cloudy
11:30 AM 37.4 °F 30.8 °F 35.6 °F 93% 29.98 in 6.2 mi West 9.2 mph - N/A   Mostly Cloudy
12:00 PM 39 °F - 35 °F 82% 30.00 in 31 mi West 8.9 mph - -   Scattered Clouds
12:00 PM 37.4 °F 30.8 °F 35.6 °F 93% 29.98 in 6.2 mi West 9.2 mph - N/A   Mostly Cloudy
12:30 PM 39.2 °F 34.2 °F 35.6 °F 87% 29.95 in 6.2 mi West 6.9 mph - N/A   Mostly Cloudy
1:00 PM 39.2 °F 35.9 °F 35.6 °F 87% 29.95 in 6.2 mi West 4.6 mph - N/A   Mostly Cloudy
1:30 PM 41.0 °F 37.1 °F 35.6 °F 81% 29.95 in 6.2 mi West 5.8 mph - N/A   Mostly Cloudy
2:00 PM 39.2 °F 35.0 °F 35.6 °F 87% 29.92 in 6.2 mi WSW 5.8 mph - N/A   Mostly Cloudy
2:30 PM 39.2 °F 35.0 °F 35.6 °F 87% 29.92 in 6.2 mi West 5.8 mph - N/A   Mostly Cloudy
3:00 PM 39.2 °F 35.0 °F 35.6 °F 87% 29.92 in 6.2 mi West 5.8 mph - N/A   Mostly Cloudy
3:30 PM 37.4 °F 32.8 °F 35.6 °F 93% 29.92 in 6.2 mi West 5.8 mph - N/A   Mostly Cloudy
4:00 PM 37.4 °F 33.8 °F 33.8 °F 87% 29.92 in 6.2 mi West 4.6 mph - N/A   Mostly Cloudy
4:30 PM 37.4 °F 34.9 °F 33.8 °F 87% 29.89 in 6.2 mi WNW 3.5 mph - N/A   Mostly Cloudy
5:00 PM 35.6 °F 31.7 °F 33.8 °F 93% 29.89 in 6.2 mi West 4.6 mph - N/A   Mostly Cloudy
5:30 PM 35.6 °F 30.7 °F 33.8 °F 93% 29.89 in 6.2 mi West 5.8 mph - N/A   Mostly Cloudy
6:00 PM 36 °F - 34 °F 89% 29.91 in 12 mi WNW 4.5 mph - -   Scattered Clouds
6:00 PM 35.6 °F 31.7 °F 33.8 °F 93% 29.89 in 6.2 mi WNW 4.6 mph - N/A   Mostly Cloudy
6:30 PM 33.8 °F 29.6 °F 33.8 °F 100% 29.89 in 6.2 mi WNW 4.6 mph - N/A   Mostly Cloudy
7:00 PM 33.8 °F 27.7 °F 32.0 °F 93% 29.89 in 6.2 mi West 6.9 mph - N/A   Mostly Cloudy
7:30 PM 32.0 °F 26.4 °F 32.0 °F 100% 29.89 in 6.2 mi West 5.8 mph - N/A   Mostly Cloudy
8:00 PM 33.8 °F 28.6 °F 32.0 °F 93% 29.89 in 6.2 mi West 5.8 mph - N/A   Mostly Cloudy
8:30 PM 33.8 °F 27.7 °F 32.0 °F 93% 29.89 in 6.2 mi West 6.9 mph - N/A   Mostly Cloudy
9:00 PM 33.8 °F 28.6 °F 33.8 °F 100% 29.89 in 6.2 mi West 5.8 mph - N/A   Mostly Cloudy
9:30 PM 33.8 °F 27.0 °F 32.0 °F 93% 29.89 in 6.2 mi West 8.1 mph - N/A   Mostly Cloudy
10:00 PM 33.8 °F 27.0 °F 33.8 °F 100% 29.86 in 6.2 mi West 8.1 mph - N/A   Mostly Cloudy
10:30 PM 33.8 °F 27.0 °F 33.8 °F 100% 29.86 in 6.2 mi West 8.1 mph - N/A   Mostly Cloudy
11:00 PM 33.8 °F 27.7 °F 32.0 °F 93% 29.86 in 6.2 mi West 6.9 mph - N/A   Mostly Cloudy
11:30 PM 33.8 °F 27.7 °F 32.0 °F 93% 29.86 in 6.2 mi West 6.9 mph - N/A   Mostly Cloudy